Date String (YYYY-MM-DD hh:mm:ss) UTC,Instrument flags,Ambient pressure (hPa),Sample flow (lpm),Bypass flow (lpm),Sample temperature (°C),Ambient temperature (°C),ASC tube jacket temperature (°C),LED temperature (°C),Box temperature (°C),Sample RH (%),Span deviation,Mass concentration (μg/m³),Mass concentration (μg/m³),Mass concentration (μg/m³)
DateTimeUTC,F1_M11,P_M11,Q1_M11,Q2_M11,T1_M11,T2_M11,T3_M11,T4_M11,T5_M11,U1_M11,ZSPAN_M11,X0_M11,X2_M11,X1_M11
2022-02-25 19:00:00,,0829.8,5.00,0.00,23.4,22.7,00.0,32.3,25.3,06.4,-000.9,0019.45,0013.50,0012.85
2022-02-25 19:01:00,,0829.7,5.00,0.00,23.4,22.7,00.0,32.3,25.3,06.3,-000.9,0019.37,0013.48,0012.83
2022-02-25 19:02:00,,0829.7,5.00,0.00,23.4,22.7,00.0,32.3,25.2,06.3,-000.9,0019.45,0013.48,0012.82
2022-02-25 19:03:00,,0829.8,5.01,0.00,23.4,22.7,00.0,32.3,25.3,06.2,-001.0,0019.33,0013.45,0012.81
2022-02-25 19:04:00,,0829.7,5.01,0.00,23.5,22.7,00.0,32.3,25.3,06.4,-000.9,0019.50,0013.42,0012.78
2022-02-25 19:05:00,,0829.8,5.00,0.00,23.5,22.8,00.0,32.3,25.3,06.4,-000.6,0019.43,0013.39,0012.75
2022-02-25 19:06:00,,0829.8,5.00,0.00,23.5,22.8,00.0,32.3,25.3,06.4,-000.5,0018.86,0013.42,0012.76
2022-02-25 19:07:00,,0829.8,5.00,0.00,23.5,22.8,00.0,32.4,25.4,06.4,-000.5,0018.99,0013.45,0012.76
2022-02-25 19:08:00,,0829.8,5.00,0.00,23.5,22.8,00.0,32.4,25.4,06.4,-000.5,0019.77,0013.47,0012.76
2022-02-25 19:09:00,,0829.8,5.00,0.00,23.5,22.9,00.0,32.4,25.4,06.3,-000.2,0019.75,0013.49,0012.75
2022-02-25 19:10:00,,0829.7,5.00,0.00,23.5,22.9,00.0,32.4,25.4,06.3,-000.2,0019.82,0013.46,0012.69
2022-02-25 19:11:00,,0829.6,4.99,0.00,23.6,22.9,00.0,32.4,25.5,06.3,-000.3,0019.95,0013.48,0012.68
2022-02-25 19:12:00,,0829.6,4.99,0.00,23.6,22.9,00.0,32.4,25.5,06.3,-000.5,0020.01,0013.47,0012.67
2022-02-25 19:13:00,,0829.6,5.00,0.00,23.6,22.9,00.0,32.4,25.5,06.3,-000.3,0020.06,0013.43,0012.64
2022-02-25 19:14:00,,0829.6,5.00,0.00,23.6,22.9,00.0,32.4,25.5,06.2,-000.2,0020.07,0013.39,0012.58
2022-02-25 19:15:00,,0829.6,5.00,0.00,23.6,22.9,00.0,32.5,25.5,06.3,-000.4,0020.05,0013.30,0012.49
2022-02-25 19:16:00,,0829.7,4.99,0.00,23.6,22.9,00.0,32.5,25.5,06.3,-000.6,0019.83,0013.23,0012.42
2022-02-25 19:17:00,,0829.6,5.00,0.00,23.7,23.0,00.0,32.5,25.5,06.2,-000.8,0019.71,0013.09,0012.29
2022-02-25 19:18:00,,0829.5,5.00,0.00,23.7,23.0,00.0,32.5,25.5,06.2,-000.7,0019.57,0012.97,0012.17
2022-02-25 19:19:00,,0829.6,5.00,0.00,23.7,23.0,00.0,32.5,25.5,06.2,-000.5,0018.72,0012.84,0012.08
2022-02-25 19:20:00,,0829.5,5.00,0.00,23.7,23.0,00.0,32.5,25.5,06.2,-000.4,0018.54,0012.73,0011.98
2022-02-25 19:21:00,,0829.5,5.00,0.00,23.7,23.0,00.0,32.6,25.6,06.2,-000.2,0018.26,0012.68,0011.95
2022-02-25 19:22:00,,0829.5,5.00,0.00,23.7,23.0,00.0,32.6,25.6,06.1,0000.1,0018.49,0012.61,0011.90
2022-02-25 19:23:00,,0829.5,5.00,0.00,23.8,23.0,00.0,32.6,25.6,06.1,0000.5,0019.20,0012.57,0011.86
2022-02-25 19:24:00,,0829.5,5.01,0.00,23.8,23.0,00.0,32.6,25.6,06.1,0000.4,0019.59,0012.55,0011.84
2022-02-25 19:25:00,,0829.5,5.00,0.00,23.8,23.0,00.0,32.6,25.6,06.2,0000.1,0019.56,0012.57,0011.87
2022-02-25 19:26:00,,0829.5,5.00,0.00,23.8,23.0,00.0,32.6,25.6,06.3,0000.3,0019.45,0012.65,0011.93
2022-02-25 19:27:00,,0829.5,4.99,0.00,23.8,23.0,00.0,32.6,25.6,06.3,0000.3,0019.74,0012.76,0012.01
2022-02-25 19:28:00,,0829.5,4.99,0.00,23.8,23.1,00.0,32.6,25.6,06.3,0000.5,0019.97,0012.88,0012.13
2022-02-25 19:29:00,,0829.5,4.99,0.00,23.8,23.1,00.0,32.7,25.6,06.3,0000.5,0020.71,0013.02,0012.26
2022-02-25 19:30:00,,0829.5,5.00,0.00,23.8,23.1,00.0,32.7,25.6,06.2,0000.3,0021.25,0013.20,0012.38
2022-02-25 19:31:00,,0829.5,5.01,0.00,23.8,23.1,00.0,32.7,25.6,06.3,0000.1,0021.40,0013.36,0012.52
2022-02-25 19:32:00,,0829.5,5.01,0.00,23.8,23.1,00.0,32.7,25.6,06.2,0000.0,0021.57,0013.45,0012.62
2022-02-25 19:33:00,,0829.5,4.99,0.00,23.8,23.1,00.0,32.7,25.7,06.2,-000.2,0021.07,0013.55,0012.72
2022-02-25 19:34:00,,0829.5,5.00,0.00,23.8,23.1,00.0,32.7,25.7,06.2,-000.2,0020.99,0013.67,0012.78
2022-02-25 19:35:00,,0829.5,5.00,0.00,23.9,23.1,00.0,32.7,25.7,06.3,-000.1,0020.87,0013.73,0012.83
2022-02-25 19:36:00,,0829.5,5.01,0.00,23.9,23.1,00.0,32.7,25.7,06.3,0000.3,0021.08,0013.80,0012.86
2022-02-25 19:37:00,,0829.5,5.00,0.00,23.9,23.1,00.0,32.7,25.7,06.3,0000.1,0021.66,0013.83,0012.88
2022-02-25 19:38:00,,0829.5,5.00,0.00,23.9,23.2,00.0,32.7,25.7,06.3,0000.4,0021.59,0013.90,0012.93
2022-02-25 19:39:00,,0829.4,5.00,0.00,23.9,23.2,00.0,32.8,25.8,06.3,0000.3,0021.93,0014.01,0013.00
2022-02-25 19:40:00,,0829.4,5.00,0.00,23.9,23.2,00.0,32.8,25.8,06.5,-000.2,0021.59,0014.02,0013.05
2022-02-25 19:41:00,,0829.3,5.00,0.00,23.9,23.2,00.0,32.8,25.8,06.4,-000.4,0021.31,0014.05,0013.10
2022-02-25 19:42:00,,0829.4,5.01,0.00,23.9,23.2,00.0,32.8,25.8,06.4,-000.5,0021.37,0014.09,0013.11
2022-02-25 19:43:00,,0829.3,5.00,0.00,23.9,23.2,00.0,32.8,25.9,06.3,-000.5,0021.42,0014.09,0013.09
2022-02-25 19:44:00,,0829.3,5.00,0.00,24.0,23.3,00.0,32.8,25.9,06.4,-000.5,0021.58,0014.11,0013.09
2022-02-25 19:45:00,,0829.3,5.00,0.00,24.0,23.3,00.0,32.8,25.9,06.5,-000.7,0022.43,0014.14,0013.13
2022-02-25 19:46:00,,0829.3,5.00,0.00,24.0,23.3,00.0,32.8,25.9,06.6,-001.1,0022.60,0014.23,0013.20
2022-02-25 19:47:00,,0829.3,5.00,0.00,24.0,23.3,00.0,32.9,25.9,06.5,-001.3,0022.60,0014.29,0013.28
2022-02-25 19:48:00,,0829.3,5.00,0.00,24.0,23.3,00.0,32.9,25.9,06.4,-001.2,0022.09,0014.39,0013.40
2022-02-25 19:49:00,,0829.2,5.01,0.00,24.0,23.3,00.0,32.9,25.9,06.5,-001.3,0022.23,0014.49,0013.51
2022-02-25 19:50:00,,0829.2,4.99,0.00,24.0,23.3,00.0,32.9,25.9,06.4,-001.2,0022.12,0014.56,0013.63
2022-02-25 19:51:00,,0829.4,5.00,0.00,24.1,23.3,00.0,32.9,26.0,06.4,-000.9,0022.18,0014.68,0013.75
2022-02-25 19:52:00,,0829.2,5.00,0.00,24.1,23.3,00.0,32.9,25.9,06.5,-000.8,0022.36,0014.81,0013.87
2022-02-25 19:53:00,,0829.2,5.01,0.00,24.1,23.3,00.0,32.9,26.0,06.6,-000.7,0022.55,0014.90,0014.00
2022-02-25 19:54:00,,0829.3,4.99,0.00,24.1,23.3,00.0,33.0,26.0,06.5,-000.7,0022.97,0015.08,0014.17
2022-02-25 19:55:00,,0829.2,5.00,0.00,24.1,23.3,00.0,33.0,26.0,06.4,-000.7,0023.01,0015.21,0014.32
2022-02-25 19:56:00,,0829.2,5.01,0.00,24.1,23.4,00.0,33.0,26.0,06.5,-000.8,0022.22,0015.36,0014.45
2022-02-25 19:57:00,,0829.2,5.00,0.00,24.1,23.4,00.0,33.0,26.0,06.5,-000.5,0022.30,0015.46,0014.56
2022-02-25 19:58:00,,0829.2,5.00,0.00,24.1,23.4,00.0,33.0,26.0,06.5,-000.0,0022.38,0015.56,0014.68
2022-02-25 19:59:00,,0829.2,5.01,0.00,24.2,23.4,00.0,33.0,26.0,06.4,0000.1,0022.60,0015.68,0014.77
